Location: Unspecified
(0.0000°N, 0.0000°E)
Time: 17:04:00
(UTC+02:00)

ARIANE 5 R/B - Visible Passes

Search period start: 28 May 2017 00:00
Search period end: 07 June 2017 00:00
Orbit: 651 x 38450 km, 7.2° (Epoch: 27 May)

Date Brightness Start Highest point End Pass type
(mag) Time Alt. Az. Time Alt. Az. Time Alt. Az.
28 May 9.8 20:37:27 10° E 21:17:49 11° E 21:50:18 10° E visible
29 May 10.3 01:09:27 10° W 02:09:36 16° W 03:45:50 10° W visible
29 May 10.0 23:44:27 10° W 01:12:28 30° W 04:39:08 10° W visible
30 May 9.8 22:35:12 10° W 00:13:57 45° W 05:24:03 10° W visible
31 May 8.1 21:31:19 10° W 23:13:50 61° W 08:26:27 10° E visible
01 Jun 7.8 20:30:05 10° W 22:11:11 76° WSW 07:29:09 10° E visible
02 Jun 7.8 19:30:22 10° W 20:29:32 87° SSW 06:31:41 10° E visible
03 Jun 7.8 18:31:38 10° W 23:13:06 83° S 05:33:54 10° E visible
04 Jun 7.9 17:33:31 10° WNW 23:59:29 82° S 04:35:40 10° E visible
05 Jun 7.6 16:35:49 10° WNW 01:06:35 81° S 03:36:45 10° E visible
